Regional Weather Roundup
Issued by NWS

Home | Current Version | Previous Version | Text Only | Print | Product List | Glossary Off
Versions: 1 2 3 4 5 6 7 8 9 10 11 12 13 14 15 16 17 18 19 20 21 22 23 24 25 26 27 28 29 30 31 32 33 34 35 36 37 38 39 40 41 42 43 44 45 46 47 48 49 50

000
ASUS43 KDMX 281007
RWRIA

WEATHER ROUNDUP FOR IOWA
NATIONAL WEATHER SERVICE DES MOINES IA
500 AM CDT THU AUG 28 2014

NOTE: "FAIR" INDICATES FEW OR NO CLOUDS BELOW 12,000 FEET WITH NO
SIGNIFICANT WEATHER AND/OR OBSTRUCTIONS TO VISIBILITY.

* - THESE STATIONS ARE NOT NWS STATIONS...THUS NOT UNDER NWS
QUALITY CONTROL.  THEY ALSO DO NOT REPORT WEATHER SUCH
AS PRECIPITATION OR FOG.

IAZ001>003-012>014-020>022-031>034-043>046-281100-
   NORTHWEST IOWA

CITY           SKY/WX    TMP DP  RH WIND       PRES   REMARKS
CARROLL *      CLOUDY    68  68 100 SE6       30.02F FOG
DENISON *      CLOUDY    68  68 100 SE6       30.00S
LE MARS *      DRIZZLE   68  68 100 VRB6      29.99F
ORANGE CITY *  LGT RAIN  70  66  88 SE6       30.00F
SHELDON *      CLOUDY    66  66 100 SE8       30.00F
SIOUX CITY     LGT RAIN  69  67  93 SE8       29.99S
SPENCER        CLOUDY    66  62  87 E9        30.03F
STORM LAKE *   DRIZZLE   66  66 100 E7        30.02F
$$

IAZ055>058-069>071-079>083-090>094-281100-
   SOUTHWEST IOWA

CITY           SKY/WX    TMP DP  RH WIND       PRES   REMARKS
ATLANTIC *     LGT RAIN  70  68  94 E9        30.00F
AUDUBON *      RAIN      72  70  94 SE3       30.04R
CLARINDA *     CLOUDY    70  70 100 E10       29.99F
COUNCIL BLFS * LGT RAIN  70  70 100 SE10G18   29.98S
CRESTON *      HVY RAIN  70  70 100 S9        30.06S
HARLAN  *      LGT RAIN  68  68 100 E5        30.05S
LAMONI         LGT RAIN  70  69  97 N5        30.03R
RED OAK *      CLOUDY    72  70  94 E13G21    29.96F
SHENANDOAH *   CLOUDY    72  70  94 E8G15     29.97S
$$

IAZ047>049-059>061-072>074-084-281100-
   CENTRAL IOWA

CITY           SKY/WX    TMP DP  RH WIND       PRES   REMARKS
AMES           CLOUDY    67  64  90 SE5       30.05R
ANKENY *         N/A     68  64  88 CALM      30.04S
CHARITON *     CLOUDY    70  68  94 E7        30.04S
DES MOINES     CLOUDY    70  65  84 E5        30.04R
GRINNELL*      MOCLDY    64  63  94 E5        30.06S
KNOXVILLE *    CLOUDY    68  64  88 E6        30.03S
MARSHALLTOWN   CLOUDY    66  62  87 E8        30.05F
PELLA *        MOCLDY    68  63  83 SE6       30.05S
PERRY *        CLOUDY    68  66  94 E10       30.03F
$$

IAZ004>006-015-016-023>025-035-036-281100-
   NORTH CENTRAL IOWA

CITY           SKY/WX    TMP DP  RH WIND       PRES   REMARKS
ALGONA *       CLOUDY    66  63  88 SE8       30.05F
CLARION *      MOCLDY    64  63  94 E9        30.05F
ESTHERVILLE    CLOUDY    63  61  93 E8        30.04F
FORT DODGE *   CLOUDY    64  63  94 E6        30.05S
MASON CITY     MOCLDY    63  61  93 SE5       30.09F
FOREST CITY *  CLOUDY    63  63 100 E7        30.07S
IOWA FALLS *   MOCLDY    64  61  88 CALM      30.08R
$$

IAZ007>011-017>019-026>030-037>042-050>054-066-281100-
   NORTHEAST IOWA

CITY           SKY/WX    TMP DP  RH WIND       PRES   REMARKS
CEDAR RAPIDS   MOCLDY    65  63  93 E7        30.06F
CHARLES CITY * CLOUDY    63  59  88 E7        30.09S
CLINTON *      MOCLDY    64  61  88 E7        30.12S
DECORAH *      CLEAR     61  59  94 CALM      30.10S
DUBUQUE        MOCLDY    63  62  97 E7        30.11S
MONTICELLO *   MOCLDY    64  64 100 SE6       30.10R
OELWEIN *      CLOUDY    64  61  88 E8        30.10R
WATERLOO       MOCLDY    64  61  90 E5        30.07R
$$

IAZ064-065-067-068-078-281100-
   EAST CENTRAL IOWA

CITY           SKY/WX    TMP DP  RH WIND       PRES   REMARKS
DAVENPORT      MOCLDY    65  62  90 E10       30.09F
IOWA CITY      MOCLDY    67  64  90 E6        30.07F
MT. PLEASANT * MOCLDY    66  64  94 E6        30.05F
MUSCATINE *    CLOUDY    70  63  78 E5        30.07S
QUAD CITIES    CLOUDY    66  62  87 E8        30.08S
$$

IAZ062-063-075>077-085>089-095>099-281100-
   SOUTHEAST IOWA

CITY           SKY/WX    TMP DP  RH WIND       PRES   REMARKS
BURLINGTON     MOCLDY    69  67  93 E8        30.05S
FAIRFIELD *    CLOUDY    66  64  94 E7        30.05S
FORT MADISON * CLEAR     70  68  94 E3        30.06R
KEOKUK *       CLEAR     72  70  94 E8        30.03S
OSKALOOSA *      N/A     66  64  94 E7        30.05S
CENTERVILLE *  CLEAR     68  68 100 E6        30.05S
OTTUMWA        MOCLDY    68  64  87 E9        30.04F
WASHINGTON *   MOCLDY    66  64  94 E7        30.06S
$$

ABBREVIATIONS USED IN REMARKS
   TC - TEMPERATURES IN CELSIUS
  WCI - WIND CHILL INDEX
   HX - HEAT INDEX
  VSB - VISIBILITY
$$




USA.gov is the U.S. government's official web portal to all federal, state and local government web resources and services.